TimePST,TemperatureF,Dew PointF,Humidity,Sea Level PressureIn,VisibilityMPH,Wind Direction,Wind SpeedMPH,Gust SpeedMPH,PrecipitationIn,Events,Conditions,WindDirDegrees,DateUTC
12:53 AM,46.9,43.0,86,30.07,10.0,Calm,Calm,-,N/A,,Clear,0,2013-03-04 08:53:00
1:53 AM,46.9,43.0,86,30.08,10.0,ESE,3.5,-,N/A,,Clear,120,2013-03-04 09:53:00
2:53 AM,46.0,43.0,89,30.08,9.0,SE,3.5,-,N/A,,Clear,130,2013-03-04 10:53:00
3:53 AM,45.0,42.1,90,30.07,8.0,SSE,3.5,-,N/A,,Clear,160,2013-03-04 11:53:00
4:53 AM,45.0,42.1,90,30.08,8.0,South,4.6,-,N/A,,Clear,190,2013-03-04 12:53:00
5:53 AM,45.0,42.1,90,30.09,8.0,South,3.5,-,N/A,,Clear,170,2013-03-04 13:53:00
6:53 AM,45.0,42.1,90,30.10,7.0,South,3.5,-,N/A,,Clear,190,2013-03-04 14:53:00
7:19 AM,44.6,42.8,93,30.10,7.0,South,4.6,-,N/A,,Scattered Clouds,180,2013-03-04 15:19:00
7:28 AM,46.4,42.8,87,30.10,7.0,SSW,5.8,-,N/A,,Mostly Cloudy,200,2013-03-04 15:28:00
7:53 AM,46.9,44.1,90,30.11,8.0,South,3.5,-,N/A,,Overcast,190,2013-03-04 15:53:00
8:53 AM,50.0,46.0,86,30.13,10.0,SSW,4.6,-,N/A,,Overcast,200,2013-03-04 16:53:00
9:32 AM,51.8,46.4,82,30.13,10.0,South,4.6,-,N/A,,Overcast,190,2013-03-04 17:32:00
9:53 AM,52.0,46.9,83,30.14,10.0,SSW,6.9,-,N/A,,Overcast,200,2013-03-04 17:53:00
10:53 AM,54.0,46.9,77,30.13,10.0,SSW,6.9,-,N/A,,Scattered Clouds,210,2013-03-04 18:53:00
11:53 AM,57.9,48.0,70,30.12,10.0,SSW,6.9,-,N/A,,Clear,210,2013-03-04 19:53:00
12:53 PM,60.1,48.0,64,30.09,10.0,SSW,5.8,-,N/A,,Clear,210,2013-03-04 20:53:00
1:53 PM,63.0,50.0,63,30.06,10.0,SW,6.9,-,N/A,,Clear,220,2013-03-04 21:53:00
2:53 PM,63.0,50.0,63,30.04,10.0,SW,10.4,-,N/A,,Clear,230,2013-03-04 22:53:00
3:53 PM,62.1,48.9,62,30.04,10.0,WSW,8.1,-,N/A,,Clear,240,2013-03-04 23:53:00
4:53 PM,62.1,48.0,60,30.04,10.0,SSW,8.1,-,N/A,,Clear,210,2013-03-05 00:53:00
5:53 PM,59.0,45.0,60,30.04,10.0,South,6.9,-,N/A,,Clear,190,2013-03-05 01:53:00
6:53 PM,54.0,45.0,72,30.04,10.0,SSW,5.8,-,N/A,,Clear,200,2013-03-05 02:53:00
7:53 PM,52.0,43.0,71,30.04,10.0,South,4.6,-,N/A,,Clear,170,2013-03-05 03:53:00
8:53 PM,51.1,43.0,74,30.05,10.0,South,5.8,-,N/A,,Clear,190,2013-03-05 04:53:00
9:53 PM,50.0,41.0,71,30.05,10.0,SSW,6.9,-,N/A,,Clear,200,2013-03-05 05:53:00
11:53 PM,46.0,37.9,73,30.04,10.0,SSW,8.1,-,N/A,,Clear,210,2013-03-05 07:53:00